Location: Newark
(34.0131°N, 4.3314°W)
Time: 03:22:55
(UTC+00:00)

Vanguard 1 - All Passes

Search period start: 17 October 2019 00:00
Search period end: 27 October 2019 00:00
Orbit: 653 x 3830 km, 34.3° (Epoch: 14 October)

Date Brightness Start Highest point End Pass type
(mag) Time Alt. Az. Time Alt. Az. Time Alt. Az.
17 Oct - 02:18:00 10° WNW 02:37:08 48° SW 02:58:13 10° SSE visible
17 Oct - 04:49:22 10° W 05:01:21 17° SW 05:12:45 10° SSW visible
17 Oct - 17:16:58 10° S 17:22:24 25° SE 17:30:40 10° E daylight
17 Oct - 19:34:04 10° WSW 19:42:34 75° SSE 19:58:56 10° ENE visible
17 Oct - 21:54:08 10° W 22:06:24 89° N 22:28:14 10° E visible
18 Oct - 00:15:42 10° WNW 00:32:28 72° SSW 00:56:02 10° SE visible
18 Oct - 02:39:57 10° W 02:58:18 39° SW 03:18:10 10° SSE visible
18 Oct - 05:20:39 10° WSW 05:22:14 10° SW 05:23:48 10° SW visible
18 Oct - 17:36:50 10° SSW 17:42:50 36° SE 17:52:52 10° E daylight
18 Oct - 19:54:55 10° WSW 20:03:46 83° SSE 20:20:53 10° E visible
18 Oct - 22:15:14 10° W 22:28:01 88° S 22:50:14 10° ESE visible
19 Oct - 00:37:00 10° WNW 00:53:58 64° SSW 01:17:07 10° SE visible
19 Oct - 03:02:20 10° W 03:19:24 31° SW 03:37:33 10° S visible
19 Oct - 17:57:05 10° SW 18:03:27 48° SSE 18:14:47 10° ENE visible
19 Oct - 20:15:53 10° W 20:25:05 89° S 20:42:52 10° E visible
19 Oct - 22:36:22 10° W 22:49:35 84° SSW 23:12:07 10° ESE visible
20 Oct - 00:58:24 10° WNW 01:15:24 55° SSW 01:37:52 10° SE visible
20 Oct - 03:25:28 10° W 03:40:28 23° SW 03:56:10 10° S visible
20 Oct - 16:02:35 10° SSE 16:05:15 13° SE 16:08:24 10° ESE daylight
20 Oct - 18:17:36 10° SW 18:24:15 61° SSE 18:36:36 10° ENE visible
20 Oct - 20:36:53 10° W 20:46:29 89° N 21:04:55 10° E visible
20 Oct - 22:57:29 10° W 23:11:08 77° SSW 23:33:48 10° ESE visible
21 Oct - 01:19:58 10° W 01:36:45 46° SW 01:58:14 10° SSE visible
21 Oct - 03:50:07 10° WSW 04:01:33 16° SW 04:13:20 10° SSW visible
21 Oct - 16:21:24 10° S 16:25:36 21° SE 16:31:27 10° E daylight
21 Oct - 18:38:20 10° WSW 18:45:14 74° SSE 18:58:23 10° E visible
21 Oct - 20:57:55 10° W 21:07:54 89° N 21:26:58 10° E visible
21 Oct - 23:18:38 10° WNW 23:32:38 69° SSW 23:55:13 10° SE visible
22 Oct - 01:41:50 10° W 01:58:03 37° SW 02:18:09 10° SSE visible
22 Oct - 16:41:13 10° SSW 16:46:04 31° SE 16:53:33 10° E daylight
22 Oct - 18:59:09 10° WSW 19:06:20 83° SSE 19:20:12 10° E visible
22 Oct - 21:18:57 10° W 21:29:22 88° S 21:48:58 10° ESE visible
22 Oct - 23:39:51 10° WNW 23:54:05 61° SSW 00:16:20 10° SE visible
23 Oct - 02:04:09 10° W 02:19:20 29° SW 02:37:28 10° S visible
23 Oct - 17:01:28 10° SW 17:06:42 44° SSE 17:15:21 10° E daylight
23 Oct - 19:20:05 10° W 19:27:34 89° S 19:42:04 10° E visible
23 Oct - 21:39:59 10° W 21:50:47 82° SSW 22:10:50 10° ESE visible
24 Oct - 00:01:10 10° W 00:15:31 52° SSW 00:37:06 10° SE visible
24 Oct - 02:27:17 10° W 02:40:36 22° SW 02:55:55 10° S visible
24 Oct - 15:07:59 10° SE 15:08:36 10° SE 15:09:14 10° SE daylight
24 Oct - 17:22:00 10° SW 17:27:29 59° SSE 17:37:00 10° E daylight
24 Oct - 19:41:03 10° W 19:48:51 88° N 20:04:00 10° E visible
24 Oct - 22:01:02 10° W 22:12:11 75° SSW 22:32:31 10° ESE visible
25 Oct - 00:22:42 10° W 00:36:54 43° SSW 00:57:27 10° SSE visible
25 Oct - 02:52:05 10° WSW 03:01:56 15° SW 03:12:43 10° SSW visible
25 Oct - 15:25:47 10° S 15:29:04 18° SE 15:33:08 10° E daylight
25 Oct - 17:42:43 10° WSW 17:48:26 73° SSE 17:58:38 10° E visible
25 Oct - 20:02:01 10° W 20:10:08 90° N 20:25:57 10° E visible
25 Oct - 22:22:07 10° W 22:33:35 66° SSW 22:53:56 10° SE visible
26 Oct - 00:44:31 10° W 00:58:18 34° SW 01:17:18 10° SSE visible
26 Oct - 15:45:33 10° SSW 15:49:37 28° SE 15:55:11 10° E daylight
26 Oct - 18:03:33 10° WSW 18:09:29 84° SSE 18:20:17 10° E visible
26 Oct - 20:23:00 10° W 20:31:27 86° S 20:47:51 10° ESE visible
26 Oct - 22:43:15 10° W 22:54:59 56° SSW 23:15:03 10° SE visible
